TimeCST,TemperatureF,Dew PointF,Humidity,Sea Level PressureIn,VisibilityMPH,Wind Direction,Wind SpeedMPH,Gust SpeedMPH,PrecipitationIn,Events,Conditions,WindDirDegrees,DateUTC
12:51 AM,68.0,68.0,100,29.99,7.0,NNE,10.4,23.0,N/A,,Overcast,30,2013-03-26 06:51:00
2:01 AM,68.0,68.0,100,29.99,7.0,NE,15.0,-,N/A,,Overcast,40,2013-03-26 08:01:00
2:49 AM,66.2,66.2,100,30.02,6.0,NE,13.8,-,N/A,Rain,Light Rain,40,2013-03-26 08:49:00
3:43 AM,68.0,66.2,94,29.99,7.0,NE,13.8,-,N/A,,Overcast,40,2013-03-26 09:43:00
4:42 AM,69.8,64.4,83,30.01,7.0,NE,13.8,-,N/A,,Overcast,40,2013-03-26 10:42:00
5:59 AM,69.8,64.4,83,30.01,7.0,SSE,15.0,-,N/A,,Overcast,150,2013-03-26 11:59:00
6:42 AM,69.8,62.6,78,30.07,7.0,NE,13.8,-,N/A,,Overcast,50,2013-03-26 12:42:00
7:47 AM,69.8,64.4,83,30.11,6.0,North,18.4,-,N/A,,Overcast,10,2013-03-26 13:47:00
8:54 AM,66.2,64.4,94,30.17,6.0,NNE,17.3,-,N/A,,Overcast,20,2013-03-26 14:54:00
9:44 AM,68.0,62.6,83,30.15,6.0,NE,9.2,20.7,N/A,,Overcast,40,2013-03-26 15:44:00
10:45 AM,69.8,60.8,73,30.14,7.0,NE,9.2,20.7,N/A,,Overcast,40,2013-03-26 16:45:00
11:49 AM,71.6,62.6,73,30.10,6.0,NNE,17.3,-,N/A,,Overcast,30,2013-03-26 17:49:00
12:44 PM,73.4,62.6,69,30.11,7.0,NE,17.3,-,N/A,,Mostly Cloudy,40,2013-03-26 18:44:00
1:47 PM,73.4,60.8,65,30.10,7.0,SE,16.1,-,N/A,,Mostly Cloudy,130,2013-03-26 19:47:00
2:40 PM,71.6,60.8,69,30.13,7.0,NNE,13.8,25.3,N/A,,Mostly Cloudy,30,2013-03-26 20:40:00
3:40 PM,71.6,59.0,64,30.11,7.0,NNE,17.3,-,N/A,,Mostly Cloudy,20,2013-03-26 21:40:00
4:44 PM,71.6,59.0,64,30.12,7.0,NE,17.3,-,N/A,,Mostly Cloudy,40,2013-03-26 22:44:00
5:40 PM,69.8,57.2,64,30.09,7.0,NNE,11.5,23.0,N/A,,Mostly Cloudy,20,2013-03-26 23:40:00
6:40 PM,68.0,55.4,64,30.16,7.0,NNE,12.7,24.2,N/A,,Scattered Clouds,20,2013-03-27 00:40:00
7:40 PM,68.0,57.2,68,30.17,7.0,North,15.0,-,N/A,,Scattered Clouds,10,2013-03-27 01:40:00
8:41 PM,68.0,59.0,73,30.22,7.0,North,10.4,-,N/A,,Mostly Cloudy,10,2013-03-27 02:41:00
9:47 PM,68.0,59.0,73,30.20,7.0,North,15.0,-,N/A,,Mostly Cloudy,360,2013-03-27 03:47:00
10:41 PM,68.0,59.0,73,30.20,7.0,North,13.8,-,N/A,,Mostly Cloudy,360,2013-03-27 04:41:00
11:43 PM,68.0,59.0,73,30.15,7.0,North,12.7,-,N/A,,Mostly Cloudy,360,2013-03-27 05:43:00